FW2567 Weather Reports


time (UTC)temp
C
wind
direction
speed
KPH
gust
KPH
rain 1hr
cm
rain 24hr
cm
rain mn
cm
humidity
%
barometer
mb
20260503050108 12 154 1.6 6.4 0.00 0.00 0.00 75 1015.9
20260503044531 -17 0 0.0 0.0 0.00 0.00 0.00 100
20260503043032 14 247 0.0 3.2 0.00 0.00 0.00 69 1015.8
20260503041531 15 249 0.0 4.8 0.00 0.00 0.00 66 1015.7
20260503040039 17 237 1.6 4.8 0.00 0.00 0.00 60 1015.5
20260503034532 17 157 3.2 8.0 0.00 0.00 0.00 60 1015.2
20260503033029 18 158 4.8 6.4 0.00 0.00 0.00 60 1014.9
20260503031531 18 157 4.8 9.7 0.00 0.00 0.00 62 1014.7
20260503030032 18 154 3.2 6.4 0.00 0.00 0.00 63 1014.4
20260503024606 19 200 0.0 3.2 0.00 0.00 0.00 62 1014.2
20260503023031 20 202 0.0 0.0 0.00 0.00 0.00 58 1014.1
20260503020106 22 177 3.2 4.8 0.00 0.00 0.00 50 1014.0
20260503014530 23 175 1.6 4.8 0.00 0.00 0.00 46 1013.9
20260503013031 24 145 0.0 3.2 0.00 0.00 0.00 39 1014.0
20260503011528 25 145 1.6 9.7 0.00 0.00 0.00 37 1013.9
20260503004530 25 136 0.0 4.8 0.00 0.00 0.00 36 1014.0
20260503000151 25 61 8.0 20.9 0.00 0.00 0.00 35 1014.0
20260502231532 26 24 6.4 19.3 0.00 0.00 0.00 32 1014.6
20260502230034 27 38 8.0 22.5 0.00 0.00 0.00 33 1014.7
20260502224531 27 102 8.0 19.3 0.00 0.00 0.00 33 1014.8
20260502223108 27 101 9.7 20.9 0.00 0.00 0.00 33 1014.9
20260502220033 26 344 6.4 17.7 0.00 0.00 0.00 39 1015.1
20260502214531 25 356 3.2 9.7 0.00 0.00 0.00 43 1015.3
20260502213108 23 350 3.2 9.7 0.00 0.00 0.00 46 1015.5
20260502211533 23 337 4.8 12.9 0.00 0.00 0.00 48 1015.7
20260502210030 22 294 4.8 11.3 0.00 0.00 0.00 51 1015.9
20260502204530 22 278 4.8 9.7 0.00 0.00 0.00 52 1016.0
20260502203031 22 300 6.4 11.3 0.00 0.00 0.00 51 1015.9
20260502201604 23 277 4.8 11.3 0.00 0.00 0.00 50 1016.0
20260502200029 23 120 3.2 9.7 0.00 0.00 0.00 49 1016.2
20260502194532 22 316 1.6 6.4 0.00 0.00 0.00 54 1016.4
20260502191606 18 46 1.6 9.7 0.00 0.00 0.00 66 1016.9
20260502190028 18 22 0.0 3.2 0.00 0.00 0.00 62 1017.2
20260502184532 19 22 0.0 3.2 0.00 0.00 0.00 61 1017.6
20260502183032 20 24 1.6 6.4 0.00 0.00 0.00 58 1017.6
20260502181531 21 316 1.6 6.4 0.00 0.00 0.00 57 1017.6
20260502163029 15 104 1.6 6.4 0.00 0.00 0.00 79 1017.3
20260502151530 12 157 0.0 0.0 0.00 0.00 0.00 91 1017.0
20260502140106 8 157 0.0 0.0 0.00 0.00 0.00 92 1016.4
20260502130106 8 170 1.6 6.4 0.00 0.00 0.00 90 1015.8
20260502123031 9 180 0.0 0.0 0.00 0.00 0.00 89 1016.0
20260502121527 10 180 0.0 0.0 0.00 0.00 0.00 88 1016.0
20260502114532 10 175 0.0 3.2 0.00 0.03 0.00 88 1016.3
20260502113031 10 159 3.2 6.4 0.00 0.03 0.00 88 1016.3
20260502111529 10 149 3.2 6.4 0.00 0.03 0.00 87 1016.3
20260502110106 11 188 0.0 6.4 0.00 0.03 0.00 87 1016.4
20260502103031 11 152 3.2 6.4 0.00 0.03 0.00 87 1016.7
20260502101530 11 121 1.6 4.8 0.00 0.03 0.00 88 1016.8
20260502091532 10 112 0.0 4.8 0.00 0.03 0.00 86 1017.0
20260502071531 11 156 4.8 8.0 0.00 0.03 0.00 83 1017.2
20260502070030 11 157 1.6 4.8 0.00 0.03 0.00 83 1017.2
20260502064536 12 189 1.6 4.8 0.00 0.03 0.03 82 1017.3
20260502063029 12 122 0.0 4.8 0.00 0.03 0.03 82 1017.3
20260502060032 12 169 1.6 6.4 0.00 0.03 0.03 79 1017.1
20260502054529 13 157 3.2 6.4 0.00 0.03 0.03 77 1017.1
20260502051533 13 141 3.2 6.4 0.00 0.03 0.03 74 1017.1